Find Starlink 30992

NORAD ID: 58524 Int'l Des: 2023-191 Owner: SPXS Country: US Constellation: starlink operational
LEOCIRCULAR

Current View

Loading 3D Globe...

About Starlink 30992

Starlink 30992 (NORAD 58524) is a starlink constellation satellite (v2 mini) launched Dec 7, 2023 by SPXS of US. It operates in LEO, CIRCULAR orbit with a mass of 730.00 kg.

About Starlink 30992

Description loading...

Upcoming Passes

Passes for default location (London). Set your location on the main map for personalized predictions.

Altitude History

Loading altitude history...

Two-Line Element Set

1 58524U 23191S 26166.96479583 -.00000190 00000-0 26410-5 0 9991
2 58524 42.9935 268.2188 0003193 285.1511 74.8987 15.27566809140504
Epoch: Jun 15, 2026 • Age: 16 hours

Current Status

Altitude 487.0 km
Velocity 7.63 km/s
Sub-Earth Point 38.97°N, 167.87°W
Launch Date Dec 7, 2023
Age 2.5 years
Type internet

Technical Details

Classification Payload
Mass 730.00 kg
Dry Mass 700.00 kg
Total Mass 730.00 kg
Length 0.30 m
Diameter 4.10 m
Span 29.00 m
Shape Box + pan
Manufacturer SPXS
Bus Type Starlink V2M
Phase Status In Orbit
Owner/State SPXS/US

Most Searched